RH
37 30 27 25 26 27 29 30 31 34 34 36 38 38 39 39 40 37 38 37 38 40 43 46 48 48 47 49 52 53 54 54 53 51 49 51 51 53 54 53 51 51 44
36 32 29 28 30 33 32 34 37 38 39 40 40 41 40 43 43 44 44 44 43 45 46 48 50 57 61 62 60 60 58 55 59 59 59 55 53 54 54 56 53 55 47
35 32 29 30 34 42 37 39 40 40 41 43 44 45 44 43 44 44 47 47 46 46 49 52 58 66 67 66 67 67 62 64 65 68 68 64 61 54 53 55 59 61 58
39 35 34 38 41 41 42 40 41 42 44 45 48 49 48 48 49 50 50 51 53 54 56 59 63 70 73 72 74 75 76 82 78 77 75 72 69 64 59 61 66 70 67
41 33 36 44 43 43 43 42 42 43 46 48 50 50 50 50 51 55 59 60 62 63 63 67 70 69 72 77 83 85 88 90 84 84 84 78 76 76 68 69 69 72 73
41 41 42 42 43 42 42 42 41 47 51 52 51 50 52 56 58 60 66 67 68 68 65 66 70 70 69 73 76 79 82 84 81 79 79 84 84 86 86 79 76 73 75
37 39 40 40 42 40 42 42 46 51 54 55 53 55 61 61 63 64 64 64 61 62 61 64 59 62 68 75 75 78 83 85 84 83 86 83 84 86 84 88 82 82 78
36 37 38 41 42 44 46 48 52 53 55 55 56 64 68 72 75 71 66 62 54 52 52 56 58 58 65 68 70 75 77 81 81 86 88 89 88 84 78 74 83 87 88
35 38 39 43 46 49 50 52 56 57 57 58 64 68 71 75 77 73 65 59 52 50 53 54 57 59 63 63 67 71 71 70 72 75 76 77 78 78 78 73 74 80 83
38 40 42 48 50 53 54 58 61 60 59 67 76 80 73 74 68 66 56 52 48 46 49 52 53 59 63 64 61 63 60 62 66 68 74 73 78 78 77 81 79 76 74
38 38 46 55 52 57 59 61 62 62 68 75 81 83 75 68 61 61 57 51 43 44 47 50 49 49 54 52 54 53 54 55 58 60 62 67 73 79 84 87 87 80 79
41 45 51 55 58 63 64 64 67 75 80 79 81 79 67 55 55 58 57 49 43 42 41 43 41 41 43 45 45 46 47 52 53 55 56 62 64 70 80 86 85 84 86
43 49 56 59 66 66 68 73 77 82 77 79 77 64 62 60 61 57 53 47 42 37 39 38 36 36 37 39 39 42 45 49 48 50 52 54 61 68 75 81 89 86 80
45 49 54 65 69 71 77 80 86 83 80 71 62 59 56 59 55 52 50 42 38 36 34 34 36 37 36 34 34 35 39 42 47 50 54 56 59 63 66 72 80 82 85
52 56 64 72 75 81 86 84 86 84 81 71 73 68 58 49 49 53 46 39 39 32 31 34 32 34 36 36 33 32 35 38 44 50 55 56 60 60 70 74 72 79 86
61 64 71 81 83 85 85 86 86 86 81 82 75 62 53 51 49 48 43 34 28 28 30 31 31 31 31 31 30 33 35 37 40 48 52 57 59 61 64 75 75 77 79
78 79 87 85 87 85 86 85 83 88 88 83 68 58 53 48 47 42 35 32 29 29 31 32 31 30 31 32 33 35 37 39 41 45 52 56 60 63 66 69 71 75 74
92 89 90 93 95 88 86 87 85 88 88 79 64 58 53 49 41 39 35 33 30 30 31 30 29 28 29 30 31 34 36 36 42 44 48 52 58 60 68 73 74 72 76
96 98 98 95 92 91 93 92 94 96 83 73 66 59 52 49 45 41 36 34 33 32 30 29 29 29 29 29 31 32 37 38 39 43 48 48 55 60 68 71 80 78 76
95 95 95 97 96 93 92 89 93 83 75 68 62 56 55 54 48 42 37 37 35 34 33 30 30 32 32 33 33 36 39 44 46 47 47 52 62 64 69 73 77 77 79
87 90 87 87 92 94 93 89 86 80 75 69 60 58 56 54 50 42 40 40 37 35 33 34 35 33 34 34 35 38 42 46 49 49 53 56 62 67 72 75 76 76 80
93 90 94 97 94 85 79 78 77 77 72 66 63 61 57 56 50 44 42 40 38 35 36 38 38 39 39 39 39 40 45 47 50 52 57 62 68 69 73 76 78 76 81
94 96 99 96 90 88 83 81 76 73 70 69 66 62 56 52 47 44 42 40 37 37 39 40 44 43 40 40 42 44 48 52 52 56 58 65 68 72 75 77 79 81 85
91 95 96 93 91 89 84 78 72 71 70 68 63 60 56 52 48 45 43 40 40 41 43 45 47 48 44 42 42 44 49 53 54 57 61 64 70 73 77 78 80 83 84
87 89 90 91 88 81 74 68 66 66 66 65 63 59 56 52 51 46 43 44 43 45 47 49 51 50 49 49 49 49 49 52 54 59 64 67 75 78 80 78 81 83 82
85 83 82 79 74 70 67 65 66 63 63 63 62 60 55 52 50 47 46 47 48 50 53 53 54 53 51 53 55 53 55 55 58 63 67 74 80 84 83 81 81 82 80